| time (UTC) | temp C | wind direction | speed KPH | gust KPH | rain 1hr cm | rain 24hr cm | rain mn cm | humidity % | barometer mb |
| 20260506001606 | 2 | 335 | 0.0 | 0.0 | 0.00 | 0.00 | 0.00 | 91 | 1016.6 |
| 20260506000047 | 3 | 335 | 0.0 | 0.0 | 0.00 | 0.00 | 0.00 | 90 | 1016.6 |
| 20260505234547 | 3 | 335 | 0.0 | 0.0 | 0.00 | 0.00 | 0.00 | 90 | 1016.7 |
| 20260505233037 | 3 | 334 | 0.0 | 0.0 | 0.00 | 0.00 | 0.00 | 90 | 1016.8 |
| 20260505231541 | 3 | 334 | 0.0 | 0.0 | 0.00 | 0.00 | 0.00 | 90 | 1016.9 |
| 20260505230037 | 3 | 351 | 0.0 | 0.0 | 0.00 | 0.00 | 0.00 | 90 | 1016.9 |
| 20260505224538 | 3 | 13 | 0.0 | 0.0 | 0.00 | 0.00 | 0.00 | 91 | 1017.0 |
| 20260505223041 | 4 | 13 | 0.0 | 0.0 | 0.00 | 0.00 | 0.00 | 90 | 1016.9 |
| 20260505221531 | 4 | 13 | 0.0 | 0.0 | 0.00 | 0.00 | 0.00 | 88 | 1016.8 |
| 20260505220038 | 5 | 13 | 0.0 | 0.0 | 0.00 | 0.00 | 0.00 | 89 | 1016.8 |
| 20260505214548 | 4 | 13 | 0.0 | 0.0 | 0.00 | 0.00 | 0.00 | 89 | 1016.9 |
| 20260505213048 | 4 | 13 | 0.0 | 0.0 | 0.00 | 0.00 | 0.00 | 87 | 1016.9 |
| 20260505211528 | 5 | 13 | 0.0 | 0.0 | 0.00 | 0.00 | 0.00 | 87 | 1017.0 |
| 20260505210030 | 5 | 13 | 0.0 | 0.0 | 0.00 | 0.00 | 0.00 | 86 | 1017.0 |
| 20260505204531 | 5 | 13 | 0.0 | 1.6 | 0.00 | 0.00 | 0.00 | 85 | 1017.0 |
| 20260505203026 | 6 | 356 | 0.0 | 3.2 | 0.00 | 0.00 | 0.00 | 86 | 1016.9 |
| 20260505201542 | 6 | 1 | 0.0 | 1.6 | 0.00 | 0.00 | 0.00 | 86 | 1016.9 |
| 20260505200028 | 6 | 1 | 0.0 | 12.9 | 0.00 | 0.00 | 0.00 | 86 | 1016.8 |
| 20260505194523 | 6 | 18 | 0.0 | 6.4 | 0.00 | 0.00 | 0.00 | 86 | 1016.8 |
| 20260505193038 | 6 | 14 | 3.2 | 16.1 | 0.00 | 0.00 | 0.00 | 86 | 1016.7 |
| 20260505191520 | 6 | 349 | 0.0 | 9.7 | 0.00 | 0.00 | 0.00 | 86 | 1016.7 |
| 20260505190029 | 7 | 354 | 0.0 | 12.9 | 0.00 | 0.00 | 0.00 | 86 | 1016.5 |
| 20260505184519 | 7 | 34 | 1.6 | 9.7 | 0.00 | 0.00 | 0.00 | 85 | 1016.4 |
| 20260505183022 | 7 | 308 | 1.6 | 12.9 | 0.00 | 0.00 | 0.00 | 84 | 1016.4 |
| 20260505181518 | 7 | 13 | 0.0 | 11.3 | 0.00 | 0.00 | 0.00 | 83 | 1016.3 |
| 20260505180029 | 7 | 19 | 4.8 | 17.7 | 0.00 | 0.00 | 0.00 | 81 | 1016.3 |
| 20260505174517 | 7 | 318 | 6.4 | 20.9 | 0.00 | 0.00 | 0.00 | 81 | 1016.2 |
| 20260505173014 | 7 | 40 | 3.2 | 17.7 | 0.00 | 0.00 | 0.00 | 81 | 1016.2 |
| 20260505171524 | 7 | 46 | 6.4 | 22.5 | 0.00 | 0.00 | 0.00 | 80 | 1016.3 |
| 20260505170015 | 7 | 6 | 1.6 | 12.9 | 0.00 | 0.00 | 0.00 | 80 | 1016.2 |
| 20260505164523 | 7 | 330 | 6.4 | 17.7 | 0.00 | 0.00 | 0.00 | 80 | 1016.2 |
| 20260505163009 | 8 | 285 | 0.0 | 12.9 | 0.00 | 0.00 | 0.00 | 83 | 1016.1 |
| 20260505161506 | 8 | 300 | 6.4 | 27.4 | 0.00 | 0.00 | 0.00 | 81 | 1015.9 |
| 20260505153004 | 8 | 310 | 9.7 | 19.3 | 0.00 | 0.00 | 0.00 | 81 | 1015.8 |
| 20260505151502 | 8 | 301 | 6.4 | 24.1 | 0.00 | 0.00 | 0.00 | 81 | 1015.7 |
| 20260505140117 | 9 | 7 | 1.6 | 14.5 | 0.00 | 0.00 | 0.00 | 82 | 1015.3 |
| 20260505124553 | 10 | 22 | 3.2 | 19.3 | 0.00 | 0.00 | 0.00 | 78 | 1015.0 |
| 20260505123107 | 9 | 8 | 1.6 | 16.1 | 0.00 | 0.00 | 0.00 | 81 | 1015.0 |
| 20260505121547 | 9 | 32 | 1.6 | 12.9 | 0.00 | 0.00 | 0.00 | 81 | 1014.9 |
| 20260505120051 | 8 | 351 | 3.2 | 20.9 | 0.00 | 0.00 | 0.00 | 82 | 1014.9 |
| 20260505114554 | 9 | 328 | 1.6 | 17.7 | 0.00 | 0.00 | 0.00 | 82 | 1014.6 |
| 20260505113050 | 9 | 6 | 3.2 | 16.1 | 0.00 | 0.00 | 0.00 | 85 | 1014.6 |
| 20260505111543 | 8 | 8 | 4.8 | 19.3 | 0.00 | 0.00 | 0.00 | 89 | 1014.7 |
| 20260505101545 | 8 | 321 | 0.0 | 4.8 | 0.00 | 0.00 | 0.00 | 92 | 1014.6 |
| 20260505100038 | 9 | 307 | 0.0 | 8.0 | 0.00 | 0.00 | 0.00 | 88 | 1014.4 |
| 20260505094536 | 9 | 322 | 0.0 | 1.6 | 0.00 | 0.00 | 0.00 | 83 | 1014.3 |
| 20260505093043 | 10 | 13 | 0.0 | 6.4 | 0.00 | 0.00 | 0.00 | 82 | 1014.3 |
| 20260505091542 | 10 | 12 | 0.0 | 6.4 | 0.00 | 0.00 | 0.00 | 81 | 1014.2 |
| 20260505090046 | 10 | 319 | 0.0 | 1.6 | 0.00 | 0.00 | 0.00 | 81 | 1014.2 |
| 20260505084534 | 10 | 321 | 0.0 | 1.6 | 0.00 | 0.00 | 0.00 | 80 | 1014.1 |
| 20260505083033 | 10 | 356 | 0.0 | 4.8 | 0.00 | 0.00 | 0.00 | 81 | 1014.2 |
| 20260505081537 | 10 | 299 | 0.0 | 0.0 | 0.00 | 0.00 | 0.00 | 83 | 1014.1 |
| 20260505080045 | 9 | 327 | 0.0 | 1.6 | 0.00 | 0.00 | 0.00 | 83 | 1014.1 |
| 20260505074525 | 9 | 334 | 0.0 | 1.6 | 0.00 | 0.00 | 0.00 | 83 | 1014.0 |
| 20260505073024 | 9 | 317 | 0.0 | 1.6 | 0.00 | 0.00 | 0.00 | 85 | 1014.0 |
| 20260505071522 | 8 | 316 | 0.0 | 0.0 | 0.00 | 0.00 | 0.00 | 88 | 1014.1 |
| 20260505070022 | 8 | 356 | 0.0 | 0.0 | 0.00 | 0.00 | 0.00 | 89 | 1014.1 |
| 20260505064516 | 7 | 309 | 0.0 | 0.0 | 0.00 | 0.00 | 0.00 | 90 | 1013.9 |
| 20260505063015 | 7 | 292 | 0.0 | 0.0 | 0.00 | 0.00 | 0.00 | 91 | 1013.9 |
| 20260505061518 | 6 | 143 | 0.0 | 0.0 | 0.00 | 0.00 | 0.00 | 94 | 1013.9 |
| 20260505060020 | 6 | 139 | 0.0 | 0.0 | 0.00 | 0.00 | 0.00 | 94 | 1013.9 |
| 20260505054517 | 5 | 139 | 0.0 | 0.0 | 0.00 | 0.00 | 0.00 | 94 | 1013.8 |
| 20260505053017 | 4 | 139 | 0.0 | 0.0 | 0.00 | 0.00 | 0.00 | 94 | 1013.8 |
| 20260505051512 | 3 | 349 | 0.0 | 0.0 | 0.00 | 0.00 | 0.00 | 94 | 1013.8 |
| 20260505041516 | 3 | 345 | 0.0 | 0.0 | 0.00 | 0.00 | 0.00 | 93 | 1013.6 |
| 20260505040009 | 3 | 345 | 0.0 | 0.0 | 0.00 | 0.00 | 0.00 | 93 | 1013.6 |
| 20260505034508 | 3 | 345 | 0.0 | 0.0 | 0.00 | 0.00 | 0.00 | 93 | 1013.6 |
| 20260505033003 | 3 | 345 | 0.0 | 0.0 | 0.00 | 0.00 | 0.00 | 93 | 1013.6 |
| 20260505031502 | 4 | 345 | 0.0 | 0.0 | 0.00 | 0.00 | 0.00 | 93 | 1013.7 |
| 20260505030002 | 4 | 344 | 0.0 | 1.6 | 0.00 | 0.00 | 0.00 | 93 | 1013.6 |
| 20260505024559 | 3 | 98 | 0.0 | 0.0 | 0.00 | 0.00 | 0.00 | 92 | 1013.6 |
| 20260505023056 | 4 | 98 | 0.0 | 0.0 | 0.00 | 0.00 | 0.00 | 92 | 1013.7 |
| 20260505021554 | 5 | 98 | 0.0 | 0.0 | 0.00 | 0.00 | 0.00 | 92 | 1013.8 |
| 20260505020052 | 5 | 98 | 0.0 | 0.0 | 0.00 | 0.00 | 0.00 | 92 | 1013.8 |
| 20260505014604 | 5 | 98 | 0.0 | 0.0 | 0.00 | 0.00 | 0.00 | 92 | 1014.0 |
| 20260505013050 | 5 | 98 | 0.0 | 0.0 | 0.00 | 0.00 | 0.00 | 91 | 1014.1 |
| 20260505011547 | 5 | 98 | 0.0 | 0.0 | 0.00 | 0.00 | 0.00 | 91 | 1014.1 |
| 20260505010045 | 5 | 98 | 0.0 | 0.0 | 0.00 | 0.00 | 0.00 | 91 | 1014.1 |
| 20260505004546 | 5 | 98 | 0.0 | 0.0 | 0.00 | 0.00 | 0.00 | 90 | 1014.1 |
| 20260505003043 | 5 | 98 | 0.0 | 0.0 | 0.00 | 0.00 | 0.00 | 90 | 1014.1 |